Theta_e
310 310 310 310 310 311 311 312 313 314 314 314 315 316 317 318 318 317 319 318 320 318 318 318 319 323 324 326 325 325 330 332 332 335 336 338 338 337 336 335 336 338 339 345 348
310 310 310 310 311 311 311 313 314 314 314 314 315 317 317 318 320 320 318 320 318 319 320 321 323 324 328 328 326 326 330 330 330 332 334 337 337 336 336 335 335 339 345 348 348
309 310 310 310 311 311 312 314 315 315 314 315 316 317 317 319 321 320 319 319 319 319 320 321 323 325 328 325 326 327 328 327 328 332 334 337 337 336 335 334 332 335 344 347 347
309 309 310 311 311 311 313 314 315 315 315 315 316 317 318 318 322 320 319 319 319 320 320 322 323 325 326 326 324 326 325 325 329 331 335 335 335 336 335 334 333 334 342 345 347
309 309 310 311 311 311 313 315 315 315 315 316 316 316 318 321 321 319 319 320 320 320 322 323 325 325 326 325 324 326 325 326 328 332 335 334 336 335 335 340 338 340 344 345 346
309 310 311 311 311 312 314 315 315 316 316 316 316 317 320 322 321 320 321 321 321 322 323 323 324 324 325 325 326 324 325 327 331 334 333 335 336 337 337 341 343 344 344 345 345
310 311 311 311 311 312 314 315 315 316 316 317 317 318 320 321 321 321 321 322 322 322 323 323 323 324 325 326 323 324 326 328 330 334 336 335 336 336 338 340 344 345 345 345 344
310 311 311 312 312 312 314 315 315 316 316 317 317 320 323 321 321 321 322 322 322 323 323 323 323 323 325 324 325 326 326 327 328 330 332 333 330 333 338 339 342 345 346 345 343
311 312 312 312 312 313 314 315 315 316 316 316 318 320 322 321 322 322 322 323 322 323 323 323 324 326 325 327 327 327 326 326 325 325 327 330 329 332 336 339 340 344 345 343 342
311 311 312 312 312 313 314 314 315 316 316 316 318 322 322 323 323 322 322 322 323 324 325 325 325 327 327 327 327 327 327 327 327 325 325 326 328 328 332 336 339 342 343 342 341
311 311 311 312 313 317 315 315 320 320 321 321 323 323 323 323 322 322 322 324 325 325 326 325 327 328 327 327 327 327 327 327 327 325 326 327 327 327 328 334 336 340 342 341 338
310 310 311 313 322 323 322 325 323 323 323 321 323 322 322 322 324 324 324 326 326 326 326 327 328 326 326 327 328 328 327 328 326 326 327 328 327 330 330 334 336 339 340 339 334
310 310 312 320 323 323 324 323 322 322 325 322 323 323 323 323 324 324 325 326 326 326 327 327 327 325 327 327 328 328 327 327 327 327 328 326 325 330 332 333 336 337 337 335 332
310 311 317 323 324 323 324 322 322 322 325 324 324 323 323 323 324 324 325 326 326 327 327 327 325 326 327 327 327 328 326 326 327 327 326 324 323 327 328 332 333 334 336 335 334
314 312 320 323 323 324 323 322 322 322 323 325 323 322 323 324 324 325 325 326 327 327 328 328 327 327 327 327 326 327 325 325 324 325 325 325 325 328 328 329 330 331 333 333 333
316 313 322 324 323 323 322 323 322 324 326 326 324 324 324 324 325 325 326 327 327 328 328 327 325 326 327 325 325 325 325 326 325 324 327 326 324 327 327 329 330 329 331 332 333
316 313 321 323 324 322 322 324 324 320 325 326 325 324 325 325 326 326 327 329 329 330 329 328 328 326 325 328 327 327 326 326 326 325 324 324 324 327 327 328 328 330 330 331 332
317 316 317 322 323 323 324 325 323 323 328 329 327 324 324 325 326 326 328 329 329 328 328 329 330 328 326 328 328 326 325 326 325 326 324 325 326 328 326 325 326 326 329 330 328
317 316 315 319 323 323 325 324 322 327 327 329 329 327 326 325 325 326 327 327 328 329 329 330 330 326 324 324 324 326 327 324 326 327 326 326 325 326 326 325 325 325 326 325 323
317 323 325 316 319 323 325 320 323 325 325 328 330 329 328 326 326 326 327 329 329 328 328 330 331 328 326 323 323 325 323 327 328 329 326 324 325 325 325 326 325 325 324 323 321
316 327 323 318 318 324 325 323 324 323 325 329 330 331 330 329 327 327 328 329 327 327 328 331 332 330 328 328 327 325 325 325 325 326 327 326 325 325 325 325 325 325 324 321 320
315 322 323 319 324 325 326 326 324 325 325 328 329 330 331 330 330 330 330 330 326 327 330 330 332 332 329 325 324 325 326 325 327 328 326 326 327 324 325 323 322 323 322 320 319
318 319 322 322 325 326 328 327 327 326 327 329 329 330 329 331 332 331 330 326 326 327 330 329 331 332 330 327 325 325 324 324 326 327 327 330 328 324 323 323 321 321 320 319 318
320 321 323 326 325 328 329 329 328 325 326 326 329 328 330 330 331 331 330 325 325 327 321 327 330 329 328 327 325 326 324 324 325 328 327 325 324 325 324 325 322 321 320 319 318
318 323 323 325 327 327 329 329 328 326 325 325 329 329 329 330 329 330 329 326 324 322 325 330 329 328 327 326 324 324 323 324 325 325 327 326 325 325 324 323 322 321 320 319 318
320 321 321 324 323 325 322 330 329 327 326 327 329 327 329 330 329 329 330 329 328 325 328 327 330 328 327 326 325 324 324 325 325 325 325 325 325 323 322 321 321 320 320 318 317
313 317 322 319 324 325 326 327 327 325 325 325 325 327 328 328 326 328 328 329 329 329 330 330 330 330 328 325 325 325 325 325 325 325 325 325 324 323 323 322 322 321 320 318 318
Wind_Speed
3 3 3 4 4 5 6 6 6 4 2 1 2 2 3 4 4 3 4 6 5 4 5 6 6 5 3 4 4 6 6 6 7 6 9 14 10 5 6 9 4 4 5 11 14
3 3 4 4 5 5 6 7 6 3 2 3 4 5 7 5 7 5 7 7 4 6 4 6 11 8 9 6 4 10 4 5 3 4 11 18 11 14 11 9 8 9 8 13 13
3 4 5 5 5 6 7 7 5 2 2 4 5 8 8 7 6 7 7 7 6 4 3 4 6 10 9 6 4 2 4 4 4 5 11 17 12 13 11 11 13 16 16 14 13
4 5 6 6 6 6 7 7 4 1 3 4 6 9 4 4 5 4 7 5 4 5 2 2 8 12 7 6 4 8 2 1 4 6 12 15 13 13 10 4 10 12 15 15 13
4 6 6 6 6 7 7 6 3 1 2 4 7 9 6 5 11 6 5 4 4 5 2 4 8 5 5 6 7 3 5 3 4 10 11 11 12 13 11 2 7 11 14 14 11
6 6 6 6 6 6 7 6 3 0 2 4 7 8 3 12 5 4 5 5 4 2 2 3 5 5 7 5 2 3 6 7 6 10 9 13 7 9 9 7 11 12 13 12 11
5 5 5 5 5 6 6 5 3 1 2 4 6 5 1 7 4 5 7 7 6 3 2 2 2 2 3 9 5 5 7 8 6 7 5 10 8 13 6 10 15 14 13 11 10
5 5 5 5 5 5 5 4 3 2 2 3 5 3 3 4 7 5 6 4 5 5 3 2 1 3 1 7 6 5 7 10 7 7 6 8 15 14 10 13 17 17 14 13 11
4 5 5 4 5 5 4 4 3 2 2 3 3 2 9 5 4 2 3 2 4 2 3 2 2 1 6 11 9 7 3 3 5 4 2 10 17 15 9 12 17 18 16 15 13
4 4 4 4 4 3 3 3 2 1 1 1 2 4 6 2 1 2 2 2 3 3 5 6 6 7 7 9 5 4 2 3 2 4 6 12 16 11 8 14 18 18 17 17 16
3 4 4 5 5 4 5 4 3 2 3 2 2 3 3 3 4 2 2 2 3 6 5 5 9 6 9 8 6 2 1 4 0 3 7 6 9 11 8 14 18 18 18 17 17
2 4 6 9 8 7 8 2 1 2 4 4 3 2 1 2 4 4 2 3 5 6 6 10 9 7 6 4 2 3 5 1 4 3 9 9 11 6 7 13 16 16 17 18 17
2 5 9 8 8 10 8 5 5 3 4 5 4 2 3 3 3 5 2 2 2 8 5 2 12 4 1 1 6 2 8 6 9 11 14 9 15 7 4 8 9 12 15 17 17
3 6 10 9 7 8 4 6 5 3 5 7 7 5 5 3 4 1 2 1 2 7 6 7 8 2 2 2 7 6 6 8 11 12 10 6 6 5 2 6 12 15 17 17 17
5 8 7 6 8 3 3 4 4 3 5 5 7 3 6 5 6 3 2 3 5 6 6 6 7 3 3 6 4 7 7 9 10 12 7 5 8 8 1 3 7 13 17 17 17
6 9 9 8 6 4 3 3 4 5 3 6 6 9 11 9 5 5 3 4 3 3 1 6 2 2 5 2 2 6 9 10 6 4 7 5 5 6 5 6 5 2 11 14 16
7 6 10 7 4 1 2 3 5 5 3 7 7 9 12 9 6 5 7 7 2 5 5 5 6 4 2 7 7 8 10 5 4 2 4 2 8 7 5 3 4 1 5 10 13
8 3 12 8 5 2 1 4 5 3 1 3 1 5 11 10 7 7 7 6 3 5 1 3 7 6 2 4 7 5 7 5 5 6 10 5 2 5 3 1 2 4 5 7 7
7 1 10 12 8 3 6 5 1 1 2 1 5 9 8 9 5 10 9 4 1 4 5 3 1 6 4 1 4 4 4 4 6 6 7 2 3 8 4 5 4 3 4 7 7
6 3 4 12 13 5 5 2 2 1 5 2 6 4 11 13 11 9 9 1 4 1 2 1 7 1 4 2 4 5 2 4 4 4 8 4 4 2 2 3 5 6 8 7 6
3 4 3 9 13 9 6 2 2 2 2 3 1 3 4 5 10 7 3 5 2 4 2 3 3 6 5 3 7 3 5 2 4 5 5 8 4 6 5 6 9 10 6 7 7
2 5 4 14 9 4 6 4 0 3 3 5 4 2 3 3 4 6 6 2 1 3 3 2 3 6 6 2 4 5 6 5 4 3 4 7 9 5 4 8 7 5 4 5 6
3 1 3 16 6 7 5 4 3 3 3 3 4 2 1 4 3 3 4 3 2 3 4 4 2 5 5 7 5 5 2 3 3 5 10 8 5 3 3 5 5 4 4 5 7
3 4 3 6 4 8 9 7 5 4 4 4 2 4 6 5 2 6 6 3 3 3 5 2 2 6 8 8 6 8 7 8 7 6 10 11 15 14 11 9 4 7 6 7 9
2 2 2 5 7 7 7 3 8 6 4 3 5 8 9 6 6 5 6 7 5 7 3 3 6 5 7 6 8 12 12 10 11 12 10 12 14 13 10 7 2 4 6 9 13
3 3 2 2 3 7 5 9 10 5 3 5 3 2 5 6 8 6 7 6 6 8 5 3 4 5 10 6 9 12 11 10 10 10 10 10 13 5 5 4 3 5 8 12 13
4 2 1 4 5 6 7 7 7 3 3 1 2 3 6 1 5 3 2 2 3 8 9 6 3 5 8 1 9 12 12 8 4 6 6 8 9 8 7 6 7 9 10 12 12
Wind_Direction
196 197 201 189 174 169 163 153 142 130 107 37 23 8 343 312 287 182 189 179 179 199 197 195 183 225 239 270 304 300 243 132 140 181 139 159 152 138 122 130 141 141 110 132 141
205 200 196 180 171 166 157 149 143 130 74 24 16 358 343 352 136 171 180 175 166 150 139 187 205 208 223 252 253 262 264 85 100 121 159 174 170 161 166 152 152 158 144 145 143
212 198 187 176 175 165 158 153 150 123 36 15 7 358 1 125 141 110 155 152 142 123 133 167 189 206 232 241 210 185 15 96 137 191 164 176 190 172 189 178 162 170 167 162 156
209 195 182 176 175 166 163 160 159 98 24 11 6 5 53 139 118 139 136 128 105 86 71 106 176 192 204 218 216 247 187 356 133 189 179 177 185 189 201 145 166 165 168 165 165
199 186 179 179 176 171 169 170 173 73 15 7 6 10 112 140 107 126 115 94 85 77 82 102 129 162 148 117 143 222 137 116 153 185 186 181 187 192 198 124 175 163 171 170 170
176 177 181 183 177 175 177 181 189 267 1 360 4 20 112 115 112 101 80 83 103 103 52 72 65 96 104 103 350 89 129 131 153 163 181 199 183 192 168 177 170 177 180 178 178
166 177 183 181 177 179 185 190 207 259 341 351 1 27 23 99 93 78 73 82 96 113 70 48 43 303 174 126 122 138 156 154 157 175 174 236 204 223 144 182 184 188 187 186 188
173 176 176 177 176 179 191 202 225 256 307 336 359 66 92 102 116 83 83 79 105 72 97 79 63 122 277 126 160 197 205 206 139 203 153 228 260 164 174 188 197 196 194 196 193
167 170 168 168 175 179 195 215 232 253 296 330 3 360 128 106 111 104 132 120 156 57 45 109 163 177 180 219 194 183 278 256 145 211 260 234 259 120 183 200 201 201 201 196 188
173 164 162 164 164 167 189 199 202 240 266 348 334 205 135 86 3 145 175 147 193 198 180 200 197 191 194 225 264 67 172 156 188 132 233 250 246 264 202 221 212 203 202 196 193
172 166 156 137 130 139 158 146 180 197 203 305 54 355 81 356 127 140 181 186 176 195 199 168 233 71 56 45 52 47 292 294 215 130 292 265 291 286 218 226 213 205 201 197 194
146 154 138 134 118 113 139 160 128 143 191 219 240 286 4 91 159 106 102 209 212 162 169 196 95 98 88 69 25 324 298 37 191 185 294 300 287 297 239 225 223 211 205 201 196
93 141 141 131 128 110 104 103 77 45 247 176 215 216 144 166 131 97 19 120 167 177 208 9 116 121 232 147 313 52 333 337 320 319 273 289 273 197 196 231 219 224 220 213 207
69 142 143 127 116 113 81 69 39 12 232 143 190 167 183 183 159 85 43 305 151 128 127 104 139 188 235 70 335 305 2 303 298 303 306 1 306 139 127 218 219 223 222 221 217
54 145 139 137 134 92 91 47 7 312 203 132 158 167 183 218 125 124 66 240 161 139 255 101 173 195 269 39 337 12 317 312 301 283 302 151 274 107 50 265 234 230 228 227 230
40 154 134 123 111 92 60 3 331 228 148 150 155 183 181 189 147 129 155 101 115 166 64 96 116 285 27 124 346 318 282 253 272 259 232 78 333 103 26 360 353 270 225 229 228
31 164 162 150 170 119 298 296 221 253 151 153 171 184 189 171 150 190 168 163 222 194 167 172 161 133 235 267 185 315 335 309 246 251 333 75 292 34 33 15 343 20 208 215 220
17 154 182 184 181 183 214 234 233 94 178 117 174 184 191 171 179 171 184 176 191 262 223 270 167 185 131 313 331 348 329 333 314 328 328 128 248 70 44 37 303 270 247 214 216
1 179 195 201 196 193 246 227 120 138 32 318 186 203 177 179 223 204 220 258 97 225 276 254 206 121 55 313 307 38 299 11 286 240 262 66 182 196 198 219 239 241 222 216 221
357 162 205 208 199 196 246 292 226 311 327 258 233 245 198 186 196 205 181 124 177 238 275 171 271 149 113 216 105 296 87 241 184 297 313 333 274 355 348 268 223 243 240 226 227
326 214 245 180 174 207 232 175 219 203 269 277 216 177 243 182 221 198 175 116 187 147 202 192 254 137 203 184 335 200 213 222 301 294 298 305 21 48 6 360 326 301 246 242 251
260 219 196 162 187 217 215 177 299 272 210 259 277 261 199 157 173 194 182 33 92 180 195 74 283 272 355 80 295 281 302 289 284 231 250 289 294 77 30 349 329 306 213 235 264
316 248 200 181 208 198 149 186 238 261 230 235 226 255 169 151 146 148 134 89 117 183 178 168 194 285 241 175 156 249 202 264 262 270 271 283 284 161 283 316 302 255 225 254 278
289 206 181 195 257 244 194 207 211 209 250 258 230 191 173 164 131 155 141 121 109 127 128 158 197 276 284 337 322 282 254 243 255 278 280 280 309 327 326 329 246 240 258 279 297
250 171 242 188 197 219 212 195 205 193 212 223 196 224 202 182 177 165 148 142 144 152 153 231 257 241 275 282 279 282 278 263 241 262 272 294 312 324 347 345 284 256 278 290 305
253 238 201 144 166 198 185 213 222 188 253 163 230 203 202 216 216 212 188 190 185 180 192 191 245 246 270 248 272 272 259 259 255 264 270 279 290 39 329 302 266 272 291 300 306
225 194 241 158 180 209 201 206 201 210 180 192 325 260 213 246 344 4 175 219 197 179 186 189 189 240 289 307 290 272 249 209 233 248 273 280 346 329 304 289 291 294 299 305 308